SYR340 OSDI-LFPO

Flight info

Callsign SYR340
Flight time 4h 16m
Altitude 37000
Route LEBOR UR655 BALMA L620 VESAR UT38 VAPEK DCT EKSEN DCT MINSU DCT D330Z DCT FSK UL608 DISOR DCT LONTA UL608 DOLEV DCT MO425 DCT REMPI DCT PUL31 DCT LABIN DCT EKLAP DCT PABRO DCT MC588 DCT NITAM DCT KOGAS DCT PAS T37 IBABA UB37 DJL
Aircraft A359/H-SDE2E3GHIJ3J4J5LM1ORWXY/LB1D1

Departure

Time 2026-04-24 09:29
Airport Damascus International Airport (OSDI)

Arrival

Time 2026-04-24 13:45
Airport Paris-Orly Airport (LFPO)
Time Latitude Longitude Altitude Speed Heading
2026-04-24 09:15 33.41274 36.51629 2002 ft 0 kts 38°
2026-04-24 09:18 33.41258 36.51613 2002 ft 4 kts 38°
2026-04-24 09:18 33.41236 36.51593 2002 ft 4 kts 38°
2026-04-24 09:19 33.41215 36.51573 2002 ft 4 kts 38°
2026-04-24 09:19 33.41203 36.51562 2002 ft 0 kts 38°
2026-04-24 09:20 33.41204 36.51562 2002 ft 0 kts 38°
2026-04-24 09:21 33.41205 36.51562 2002 ft 0 kts 38°
2026-04-24 09:25 33.41207 36.51568 2006 ft 2 kts 65°
2026-04-24 09:25 33.41204 36.51578 2002 ft 4 kts 102°
2026-04-24 09:25 33.41194 36.51619 2005 ft 6 kts 105°
2026-04-24 09:25 33.41183 36.51676 2004 ft 8 kts 97°
2026-04-24 09:26 33.41179 36.51748 2005 ft 9 kts 94°
2026-04-24 09:26 33.41174 36.51834 2003 ft 11 kts 93°
2026-04-24 09:26 33.41169 36.51928 2004 ft 12 kts 98°
2026-04-24 09:26 33.41117 36.52015 2003 ft 13 kts 140°
2026-04-24 09:27 33.41045 36.52090 2004 ft 14 kts 138°
2026-04-24 09:27 33.40995 36.52143 2003 ft 15 kts 139°
2026-04-24 09:27 33.40912 36.52230 2004 ft 16 kts 139°
2026-04-24 09:27 33.40823 36.52324 2003 ft 18 kts 139°
2026-04-24 09:28 33.40729 36.52420 2004 ft 18 kts 146°
2026-04-24 09:28 33.40609 36.52429 2004 ft 18 kts 199°
2026-04-24 09:28 33.40513 36.52318 2004 ft 31 kts 229°
2026-04-24 09:28 33.40213 36.51914 2004 ft 96 kts 228°
2026-04-24 09:29 33.39638 36.51140 2003 ft 151 kts 228°
2026-04-24 09:29 33.38866 36.50100 2334 ft 170 kts 228°
2026-04-24 09:29 33.38103 36.49072 3037 ft 165 kts 228°
2026-04-24 09:29 33.37341 36.48046 3520 ft 170 kts 227°
2026-04-24 09:30 33.36654 36.46802 3805 ft 190 kts 247°
2026-04-24 09:30 33.36830 36.44596 4138 ft 223 kts 302°
2026-04-24 09:30 33.37590 36.43742 4408 ft 234 kts 330°
2026-04-24 09:30 33.39211 36.43350 4786 ft 253 kts
2026-04-24 09:31 33.40951 36.43998 5234 ft 269 kts 21°
2026-04-24 09:31 33.42727 36.44789 5945 ft 275 kts 17°
2026-04-24 09:31 33.44563 36.45466 6733 ft 277 kts 14°
2026-04-24 09:31 33.46444 36.46062 7532 ft 282 kts 12°
2026-04-24 09:32 33.48353 36.46613 8285 ft 289 kts 11°
2026-04-24 09:32 33.50342 36.47153 9094 ft 296 kts 10°
2026-04-24 09:32 33.52373 36.47687 9893 ft 302 kts
2026-04-24 09:32 33.54464 36.48228 10443 ft 316 kts
2026-04-24 09:33 33.56688 36.48797 10786 ft 337 kts
2026-04-24 09:33 33.59048 36.49401 11127 ft 356 kts
2026-04-24 09:33 33.61537 36.49983 11576 ft 369 kts
2026-04-24 09:33 33.64103 36.50382 12247 ft 375 kts
2026-04-24 09:34 33.66720 36.50738 12906 ft 381 kts
2026-04-24 09:34 33.69371 36.51095 13630 ft 386 kts
2026-04-24 09:34 33.72051 36.51458 14284 ft 390 kts
2026-04-24 09:34 33.74769 36.51827 14926 ft 394 kts
2026-04-24 09:35 33.77474 36.52196 15603 ft 398 kts
2026-04-24 09:35 33.80239 36.52573 16276 ft 402 kts
2026-04-24 09:35 33.83040 36.52956 16964 ft 406 kts
2026-04-24 09:35 33.85863 36.53342 17613 ft 410 kts
2026-04-24 09:36 33.88714 36.53707 18242 ft 414 kts
2026-04-24 09:36 33.91603 36.54049 18826 ft 418 kts
2026-04-24 09:36 33.94514 36.54395 19432 ft 422 kts
2026-04-24 09:36 33.97448 36.54748 20035 ft 425 kts
2026-04-24 09:37 34.00409 36.55105 20627 ft 429 kts
2026-04-24 09:37 34.03396 36.55468 21247 ft 433 kts
2026-04-24 09:37 34.06412 36.55834 21876 ft 437 kts
2026-04-24 09:37 34.09409 36.56199 22499 ft 440 kts 360°
2026-04-24 09:38 34.12465 36.56573 23101 ft 443 kts 360°
2026-04-24 09:38 34.15547 36.56938 23700 ft 446 kts 359°
2026-04-24 09:38 34.18634 36.56984 24219 ft 442 kts 349°
2026-04-24 09:38 34.21641 36.56369 24750 ft 435 kts 338°
2026-04-24 09:39 34.24446 36.55081 25317 ft 428 kts 327°
2026-04-24 09:39 34.26953 36.53200 25858 ft 421 kts 316°
2026-04-24 09:39 34.29088 36.50823 26394 ft 414 kts 306°
2026-04-24 09:39 34.30796 36.48050 26958 ft 409 kts 296°
2026-04-24 09:40 34.32050 36.44983 27508 ft 405 kts 287°
2026-04-24 09:40 34.32824 36.41718 28029 ft 403 kts 277°
2026-04-24 09:40 34.33100 36.38393 28545 ft 403 kts 269°
2026-04-24 09:40 34.32883 36.35019 29046 ft 404 kts 260°
2026-04-24 09:41 34.32171 36.31727 29501 ft 407 kts 251°
2026-04-24 09:41 34.31016 36.28597 29898 ft 410 kts 245°
2026-04-24 09:41 34.29725 36.25501 30258 ft 413 kts 247°
2026-04-24 09:41 34.28711 36.22250 30645 ft 413 kts 255°
2026-04-24 09:42 34.28191 36.18832 31052 ft 414 kts 264°
2026-04-24 09:42 34.28102 36.15338 31454 ft 416 kts 268°
2026-04-24 09:42 34.28166 36.11828 31821 ft 418 kts 270°
2026-04-24 09:42 34.28300 36.08310 32170 ft 420 kts 270°
2026-04-24 09:43 34.28459 36.04773 32520 ft 422 kts 270°
2026-04-24 09:43 34.28618 36.01226 32859 ft 423 kts 270°
2026-04-24 09:43 34.28772 35.97663 33196 ft 425 kts 270°
2026-04-24 09:43 34.28938 35.94140 33688 ft 422 kts 270°
2026-04-24 09:44 34.29113 35.90608 34206 ft 419 kts 270°
2026-04-24 09:44 34.29284 35.87098 34632 ft 417 kts 270°
2026-04-24 09:44 34.29451 35.83588 34984 ft 416 kts 270°
2026-04-24 09:44 34.29611 35.80091 35252 ft 417 kts 270°
2026-04-24 09:45 34.29767 35.76596 35544 ft 416 kts 270°
2026-04-24 09:45 34.29952 35.73099 35871 ft 417 kts 272°
2026-04-24 09:45 34.30394 35.69622 36140 ft 420 kts 278°
2026-04-24 09:45 34.31160 35.66192 36396 ft 423 kts 282°
2026-04-24 09:46 34.32049 35.62797 36649 ft 424 kts 283°
2026-04-24 09:46 34.32989 35.59411 36912 ft 425 kts 283°
2026-04-24 09:46 34.34909 35.52693 36973 ft 424 kts 283°
2026-04-24 09:47 34.36834 35.45941 36981 ft 424 kts 283°
2026-04-24 09:47 34.38739 35.39179 36980 ft 424 kts 283°
2026-04-24 09:48 34.40633 35.32411 36981 ft 424 kts 283°
2026-04-24 09:48 34.42522 35.25641 36982 ft 424 kts 283°
2026-04-24 09:49 34.44409 35.18862 36974 ft 425 kts 283°
2026-04-24 09:49 34.46390 35.12149 36975 ft 429 kts 288°
2026-04-24 09:50 34.49533 35.05898 36973 ft 442 kts 302°
2026-04-24 09:50 34.54207 35.00846 36982 ft 461 kts 319°
2026-04-24 09:51 34.59722 34.96772 36970 ft 467 kts 322°
2026-04-24 09:51 34.65383 34.92834 36973 ft 469 kts 322°
2026-04-24 09:52 34.71037 34.88880 36978 ft 469 kts 322°
2026-04-24 09:52 34.76674 34.84885 36974 ft 469 kts 322°
2026-04-24 09:53 34.82298 34.80870 36975 ft 469 kts 322°
2026-04-24 09:53 34.87921 34.76849 36973 ft 469 kts 322°
2026-04-24 09:54 34.93547 34.72820 36993 ft 469 kts 322°
2026-04-24 09:54 34.99137 34.68812 36976 ft 470 kts 322°
2026-04-24 09:55 35.04774 34.64765 36979 ft 470 kts 322°
2026-04-24 09:55 35.10414 34.60721 36982 ft 469 kts 322°
2026-04-24 09:56 35.16040 34.56676 36976 ft 469 kts 322°
2026-04-24 09:56 35.21664 34.52627 36973 ft 469 kts 322°
2026-04-24 09:57 35.27275 34.48580 36974 ft 469 kts 322°
2026-04-24 09:57 35.32861 34.44545 36974 ft 468 kts 322°
2026-04-24 09:58 35.38472 34.40486 36971 ft 468 kts 322°
2026-04-24 09:58 35.44081 34.36421 36971 ft 468 kts 322°
2026-04-24 09:59 35.49686 34.32352 36971 ft 468 kts 322°
2026-04-24 09:59 35.55296 34.28274 36971 ft 468 kts 322°
2026-04-24 10:00 35.60876 34.24210 36974 ft 468 kts 322°
2026-04-24 10:00 35.66474 34.20128 36975 ft 467 kts 322°
2026-04-24 10:01 35.72061 34.16049 36968 ft 466 kts 322°
2026-04-24 10:01 35.77639 34.11939 36966 ft 466 kts 322°
2026-04-24 10:02 35.83162 34.07846 36966 ft 466 kts 322°
2026-04-24 10:02 35.88707 34.03683 36963 ft 463 kts 319°
2026-04-24 10:03 35.93461 33.98527 36968 ft 448 kts 304°
2026-04-24 10:03 35.97422 33.92670 36966 ft 446 kts 302°
2026-04-24 10:04 36.01276 33.86657 36955 ft 446 kts 302°
2026-04-24 10:04 36.05121 33.80626 36959 ft 447 kts 302°
2026-04-24 10:05 36.08987 33.74588 36954 ft 447 kts 302°
2026-04-24 10:05 36.12848 33.68568 36960 ft 447 kts 302°
2026-04-24 10:06 36.18650 33.59508 36953 ft 448 kts 301°
2026-04-24 10:07 36.22493 33.53491 36952 ft 448 kts 301°
2026-04-24 10:07 36.26357 33.47433 36951 ft 448 kts 301°
2026-04-24 10:08 36.30217 33.41368 36938 ft 448 kts 301°
2026-04-24 10:08 36.34074 33.35297 36935 ft 448 kts 301°
2026-04-24 10:09 36.37940 33.29201 36932 ft 448 kts 301°
2026-04-24 10:09 36.41778 33.23145 36932 ft 449 kts 301°
2026-04-24 10:10 36.45625 33.17039 36932 ft 448 kts 301°
2026-04-24 10:10 36.49470 33.10925 36929 ft 448 kts 301°
2026-04-24 10:11 36.53302 33.04827 36928 ft 447 kts 301°
2026-04-24 10:11 36.57105 32.98768 36927 ft 448 kts 301°
2026-04-24 10:12 36.60931 32.92659 36929 ft 447 kts 301°
2026-04-24 10:12 36.64753 32.86542 36929 ft 447 kts 301°
2026-04-24 10:13 36.68565 32.80433 36923 ft 446 kts 301°
2026-04-24 10:13 36.72369 32.74325 36932 ft 446 kts 300°
2026-04-24 10:14 36.76168 32.68214 36928 ft 445 kts 300°
2026-04-24 10:14 36.79962 32.62102 36922 ft 446 kts 300°
2026-04-24 10:15 36.83119 32.57004 36929 ft 447 kts 301°
2026-04-24 10:15 36.86926 32.50849 36941 ft 447 kts 301°
2026-04-24 10:16 36.90723 32.44697 36934 ft 446 kts 300°
2026-04-24 10:16 36.94518 32.38548 36945 ft 446 kts 300°
2026-04-24 10:17 36.98286 32.32432 36933 ft 446 kts 300°
2026-04-24 10:17 37.02060 32.26299 36952 ft 444 kts 300°
2026-04-24 10:18 37.05826 32.20162 36938 ft 444 kts 300°
2026-04-24 10:18 37.09585 32.14022 36958 ft 444 kts 300°
2026-04-24 10:19 37.13346 32.07867 36942 ft 444 kts 300°
2026-04-24 10:19 37.17098 32.01720 36939 ft 443 kts 300°
2026-04-24 10:20 37.20839 31.95579 36940 ft 443 kts 300°
2026-04-24 10:20 37.24576 31.89428 36937 ft 443 kts 300°
2026-04-24 10:21 37.28323 31.83252 36932 ft 444 kts 300°
2026-04-24 10:21 37.32041 31.77118 36934 ft 443 kts 300°
2026-04-24 10:22 37.35768 31.70953 36929 ft 442 kts 300°
2026-04-24 10:22 37.39363 31.64705 36929 ft 439 kts 296°
2026-04-24 10:23 37.42639 31.58219 36935 ft 439 kts 295°
2026-04-24 10:23 37.45894 31.51716 36940 ft 438 kts 296°
2026-04-24 10:24 37.49172 31.45293 36934 ft 440 kts 296°
2026-04-24 10:24 37.52506 31.38817 36937 ft 441 kts 296°
2026-04-24 10:25 37.55851 31.32324 36960 ft 443 kts 296°
2026-04-24 10:25 37.59195 31.25822 36940 ft 441 kts 296°
2026-04-24 10:26 37.62506 31.19358 36943 ft 442 kts 296°
2026-04-24 10:26 37.65839 31.12831 36937 ft 443 kts 296°
2026-04-24 10:27 37.69176 31.06289 36943 ft 443 kts 296°
2026-04-24 10:27 37.72512 30.99735 36942 ft 443 kts 296°
2026-04-24 10:28 37.75839 30.93190 36952 ft 443 kts 296°
2026-04-24 10:28 37.79178 30.86601 36944 ft 445 kts 296°
2026-04-24 10:29 37.82523 30.79994 36939 ft 446 kts 296°
2026-04-24 10:29 37.85868 30.73373 36951 ft 446 kts 296°
2026-04-24 10:30 37.89211 30.66743 36953 ft 446 kts 296°
2026-04-24 10:30 37.92438 30.60106 36956 ft 444 kts 294°
2026-04-24 10:31 37.95590 30.53364 36962 ft 444 kts 294°
2026-04-24 10:31 37.98746 30.46622 36944 ft 445 kts 294°
2026-04-24 10:32 38.01915 30.39888 36948 ft 445 kts 294°
2026-04-24 10:32 38.05070 30.33193 36956 ft 444 kts 295°
2026-04-24 10:33 38.08243 30.26449 36945 ft 444 kts 295°
2026-04-24 10:33 38.11388 30.19746 36946 ft 444 kts 295°
2026-04-24 10:34 38.14548 30.13003 36956 ft 445 kts 295°
2026-04-24 10:34 38.17705 30.06245 36951 ft 445 kts 295°
2026-04-24 10:35 38.20863 29.99464 36950 ft 446 kts 295°
2026-04-24 10:35 38.24021 29.92676 36958 ft 446 kts 295°
2026-04-24 10:36 38.27181 29.85870 36956 ft 446 kts 295°
2026-04-24 10:36 38.30336 29.79059 36959 ft 447 kts 295°
2026-04-24 10:37 38.33496 29.72221 36960 ft 449 kts 295°
2026-04-24 10:37 38.36662 29.65358 36960 ft 449 kts 295°
2026-04-24 10:38 38.39825 29.58488 36964 ft 449 kts 295°
2026-04-24 10:38 38.42958 29.51667 36968 ft 449 kts 295°
2026-04-24 10:39 38.46123 29.44761 36962 ft 451 kts 295°
2026-04-24 10:39 38.49284 29.37849 36964 ft 451 kts 295°
2026-04-24 10:40 38.52432 29.30952 36966 ft 451 kts 295°
2026-04-24 10:40 38.55592 29.24012 36994 ft 452 kts 296°
2026-04-24 10:41 38.58768 29.17020 36960 ft 457 kts 296°
2026-04-24 10:41 38.61957 29.09986 36963 ft 457 kts 296°
2026-04-24 10:42 38.65147 29.02935 36963 ft 457 kts 296°
2026-04-24 10:42 38.68336 28.95873 36964 ft 457 kts 296°
2026-04-24 10:43 38.71501 28.88845 36966 ft 460 kts 296°
2026-04-24 10:43 38.74695 28.81736 36967 ft 460 kts 296°
2026-04-24 10:44 38.77889 28.74613 36966 ft 461 kts 296°
2026-04-24 10:44 38.81083 28.67474 36966 ft 460 kts 296°
2026-04-24 10:45 38.84271 28.60330 36976 ft 464 kts 297°
2026-04-24 10:45 38.87458 28.53172 36974 ft 465 kts 297°
2026-04-24 10:46 38.90665 28.45957 36975 ft 465 kts 297°
2026-04-24 10:46 38.93869 28.38731 36979 ft 465 kts 297°
2026-04-24 10:47 38.97072 28.31488 36976 ft 467 kts 297°
2026-04-24 10:47 39.00282 28.24212 36980 ft 469 kts 297°
2026-04-24 10:48 39.03494 28.16915 36982 ft 468 kts 297°
2026-04-24 10:48 39.06681 28.09660 36985 ft 469 kts 297°
2026-04-24 10:49 39.09889 28.02309 36984 ft 473 kts 297°
2026-04-24 10:49 39.13023 27.94846 36983 ft 473 kts 297°
2026-04-24 10:50 39.16133 27.87355 36984 ft 473 kts 297°
2026-04-24 10:50 39.19247 27.79875 36987 ft 474 kts 297°
2026-04-24 10:51 39.22366 27.72392 36983 ft 474 kts 297°
2026-04-24 10:51 39.25483 27.64902 36985 ft 474 kts 297°
2026-04-24 10:52 39.28594 27.57408 36997 ft 474 kts 297°
2026-04-24 10:52 39.31704 27.49898 36996 ft 473 kts 297°
2026-04-24 10:53 39.34785 27.42436 36998 ft 474 kts 297°
2026-04-24 10:53 39.37883 27.34915 36997 ft 474 kts 297°
2026-04-24 10:54 39.40984 27.27369 36996 ft 475 kts 297°
2026-04-24 10:54 39.44081 27.19815 36997 ft 475 kts 297°
2026-04-24 10:55 39.47169 27.12266 36994 ft 475 kts 297°
2026-04-24 10:55 39.50199 27.04837 36995 ft 476 kts 297°
2026-04-24 10:56 39.53289 26.97245 36992 ft 477 kts 297°
2026-04-24 10:56 39.56381 26.89628 36993 ft 477 kts 297°
2026-04-24 10:57 39.59451 26.82048 36994 ft 478 kts 297°
2026-04-24 10:57 39.62538 26.74405 36997 ft 479 kts 297°
2026-04-24 10:58 39.65625 26.66744 37001 ft 479 kts 297°
2026-04-24 10:58 39.68708 26.59072 37009 ft 479 kts 297°
2026-04-24 10:59 39.71789 26.51387 37011 ft 479 kts 298°
2026-04-24 10:59 39.74860 26.43705 37015 ft 479 kts 298°
2026-04-24 11:00 39.77907 26.36066 37017 ft 478 kts 297°
2026-04-24 11:00 39.80969 26.28369 37034 ft 478 kts 297°
2026-04-24 11:01 39.84025 26.20669 37038 ft 480 kts 298°
2026-04-24 11:01 39.86568 26.14247 37030 ft 480 kts 298°
2026-04-24 11:02 39.89624 26.06509 37020 ft 480 kts 298°
2026-04-24 11:02 39.93167 25.97514 37041 ft 480 kts 297°
2026-04-24 11:03 39.95718 25.91021 37046 ft 481 kts 298°
2026-04-24 11:03 39.98765 25.83245 37042 ft 482 kts 297°
2026-04-24 11:04 40.01808 25.75461 37041 ft 482 kts 297°
2026-04-24 11:04 40.04849 25.67661 37037 ft 482 kts 297°
2026-04-24 11:05 40.07861 25.59914 37043 ft 482 kts 298°
2026-04-24 11:05 40.10896 25.52089 37034 ft 481 kts 298°
2026-04-24 11:06 40.13919 25.44274 37045 ft 481 kts 298°
2026-04-24 11:06 40.16930 25.36470 37033 ft 481 kts 298°
2026-04-24 11:07 40.21423 25.24787 37038 ft 482 kts 298°
2026-04-24 11:07 40.24429 25.16944 37044 ft 482 kts 297°
2026-04-24 11:08 40.27432 25.09090 37027 ft 482 kts 297°
2026-04-24 11:08 40.30414 25.01267 37032 ft 482 kts 297°
2026-04-24 11:09 40.33464 24.93440 37033 ft 482 kts 299°
2026-04-24 11:09 40.36637 24.85690 37035 ft 482 kts 300°
2026-04-24 11:10 40.39813 24.77932 37036 ft 482 kts 299°
2026-04-24 11:10 40.42963 24.70156 37031 ft 482 kts 299°
2026-04-24 11:11 40.46098 24.62360 37031 ft 482 kts 299°
2026-04-24 11:11 40.49206 24.54607 37028 ft 482 kts 299°
2026-04-24 11:12 40.52333 24.46791 37022 ft 482 kts 299°
2026-04-24 11:12 40.55458 24.38960 37024 ft 482 kts 299°
2026-04-24 11:13 40.58572 24.31135 37021 ft 483 kts 299°
2026-04-24 11:13 40.61663 24.23350 37028 ft 483 kts 299°
2026-04-24 11:14 40.64766 24.15510 37025 ft 483 kts 299°
2026-04-24 11:14 40.67867 24.07657 37015 ft 483 kts 299°
2026-04-24 11:15 40.70964 23.99794 37011 ft 483 kts 299°
2026-04-24 11:15 40.74062 23.91907 37010 ft 483 kts 299°
2026-04-24 11:16 40.77128 23.84082 37010 ft 483 kts 299°
2026-04-24 11:16 40.80208 23.76196 37005 ft 483 kts 299°
2026-04-24 11:17 40.83285 23.68301 37009 ft 483 kts 299°
2026-04-24 11:17 40.86358 23.60394 37002 ft 483 kts 299°
2026-04-24 11:18 40.89402 23.52541 37006 ft 483 kts 299°
2026-04-24 11:18 40.92468 23.44610 37003 ft 483 kts 299°
2026-04-24 11:19 40.95519 23.36694 37000 ft 483 kts 299°
2026-04-24 11:19 40.98555 23.28799 37005 ft 484 kts 299°
2026-04-24 11:20 41.01607 23.20839 37005 ft 484 kts 299°
2026-04-24 11:20 41.04649 23.12882 36996 ft 484 kts 299°
2026-04-24 11:21 41.07688 23.04914 37007 ft 485 kts 299°
2026-04-24 11:21 41.11185 22.97306 37010 ft 481 kts 311°
2026-04-24 11:22 41.15406 22.90414 37006 ft 480 kts 312°
2026-04-24 11:22 41.19698 22.83691 37008 ft 480 kts 313°
2026-04-24 11:23 41.24028 22.76927 36999 ft 480 kts 313°
2026-04-24 11:23 41.28428 22.70238 37015 ft 480 kts 315°
2026-04-24 11:24 41.32953 22.63710 37012 ft 479 kts 315°
2026-04-24 11:24 41.37472 22.57177 37019 ft 479 kts 315°
2026-04-24 11:25 41.41943 22.50637 37020 ft 480 kts 315°
2026-04-24 11:25 41.46422 22.44043 37015 ft 480 kts 315°
2026-04-24 11:26 41.50909 22.37417 37021 ft 481 kts 315°
2026-04-24 11:26 41.55385 22.30795 37027 ft 481 kts 315°
2026-04-24 11:27 41.59876 22.24138 37028 ft 481 kts 315°
2026-04-24 11:27 41.64320 22.17536 37022 ft 481 kts 315°
2026-04-24 11:28 41.68821 22.10836 37025 ft 481 kts 315°
2026-04-24 11:28 41.73267 22.04200 37026 ft 481 kts 315°
2026-04-24 11:29 41.77750 21.97496 37021 ft 481 kts 315°
2026-04-24 11:29 41.82211 21.90807 37023 ft 482 kts 315°
2026-04-24 11:30 41.86649 21.84139 37020 ft 481 kts 315°
2026-04-24 11:30 41.91101 21.77434 37021 ft 482 kts 315°
2026-04-24 11:31 41.95565 21.70697 37021 ft 482 kts 315°
2026-04-24 11:31 42.00028 21.63946 37019 ft 483 kts 315°
2026-04-24 11:32 42.04482 21.57193 37020 ft 483 kts 315°
2026-04-24 11:32 42.08943 21.50414 37034 ft 483 kts 315°
2026-04-24 11:33 42.13376 21.43659 37031 ft 483 kts 315°
2026-04-24 11:33 42.17825 21.36852 37033 ft 483 kts 314°
2026-04-24 11:34 42.22191 21.29941 37035 ft 484 kts 314°
2026-04-24 11:34 42.26528 21.22994 37038 ft 484 kts 314°
2026-04-24 11:35 42.30871 21.16053 37038 ft 484 kts 314°
2026-04-24 11:35 42.35202 21.09138 37040 ft 484 kts 314°
2026-04-24 11:36 42.39549 21.02189 37044 ft 484 kts 314°
2026-04-24 11:36 42.43897 20.95222 37045 ft 484 kts 314°
2026-04-24 11:37 42.48244 20.88240 37044 ft 484 kts 314°
2026-04-24 11:37 42.52582 20.81253 37044 ft 484 kts 314°
2026-04-24 11:38 42.56919 20.74253 37041 ft 484 kts 314°
2026-04-24 11:38 42.61248 20.67247 37040 ft 484 kts 314°
2026-04-24 11:39 42.65574 20.60231 37033 ft 484 kts 314°
2026-04-24 11:39 42.69894 20.53207 37034 ft 484 kts 314°
2026-04-24 11:40 42.74184 20.46217 37025 ft 484 kts 314°
2026-04-24 11:40 42.78496 20.39174 37034 ft 484 kts 314°
2026-04-24 11:41 42.82627 20.31916 37043 ft 488 kts 306°
2026-04-24 11:41 42.85556 20.23512 37043 ft 494 kts 296°
2026-04-24 11:42 42.88034 20.14751 37043 ft 495 kts 294°
2026-04-24 11:42 42.90431 20.05945 37054 ft 495 kts 294°
2026-04-24 11:43 42.92834 19.97143 37049 ft 495 kts 294°
2026-04-24 11:43 42.95233 19.88399 37053 ft 495 kts 294°
2026-04-24 11:44 42.97646 19.79599 37030 ft 495 kts 294°
2026-04-24 11:44 43.00056 19.70780 37050 ft 495 kts 294°
2026-04-24 11:45 43.02464 19.61932 37052 ft 495 kts 294°
2026-04-24 11:45 43.04861 19.53093 37053 ft 496 kts 294°
2026-04-24 11:46 43.07250 19.44251 37043 ft 495 kts 294°
2026-04-24 11:46 43.09633 19.35401 37053 ft 496 kts 294°
2026-04-24 11:47 43.12012 19.26535 37051 ft 496 kts 294°
2026-04-24 11:47 43.14368 19.17716 37062 ft 496 kts 294°
2026-04-24 11:48 43.16734 19.08832 37047 ft 496 kts 294°
2026-04-24 11:48 43.19095 18.99935 37054 ft 497 kts 294°
2026-04-24 11:49 43.21449 18.91026 37058 ft 497 kts 294°
2026-04-24 11:49 43.23401 18.83606 37051 ft 496 kts 294°
2026-04-24 11:50 43.25744 18.74684 37059 ft 497 kts 293°
2026-04-24 11:50 43.28087 18.65727 37041 ft 498 kts 293°
2026-04-24 11:51 43.30420 18.56779 37043 ft 498 kts 293°
2026-04-24 11:51 43.32732 18.47870 37059 ft 498 kts 293°
2026-04-24 11:52 43.35056 18.38884 37066 ft 499 kts 293°
2026-04-24 11:52 43.37370 18.29898 37061 ft 499 kts 293°
2026-04-24 11:53 43.39679 18.20897 37053 ft 499 kts 293°
2026-04-24 11:53 43.41974 18.11922 37044 ft 499 kts 292°
2026-04-24 11:54 43.44270 18.02904 37040 ft 500 kts 292°
2026-04-24 11:54 43.46560 17.93875 37037 ft 499 kts 292°
2026-04-24 11:55 43.48845 17.84835 37044 ft 500 kts 292°
2026-04-24 11:55 43.51124 17.75783 37070 ft 499 kts 292°
2026-04-24 11:56 43.53381 17.66732 37065 ft 499 kts 292°
2026-04-24 11:56 43.55589 17.57661 37067 ft 500 kts 291°
2026-04-24 11:57 43.57795 17.48547 37071 ft 499 kts 291°
2026-04-24 11:57 43.59996 17.39468 37053 ft 499 kts 291°
2026-04-24 11:58 43.62185 17.30425 37072 ft 500 kts 291°
2026-04-24 11:58 43.64377 17.21326 37073 ft 500 kts 291°
2026-04-24 11:59 43.66565 17.12201 37073 ft 500 kts 291°
2026-04-24 11:59 43.68746 17.03065 37066 ft 500 kts 291°
2026-04-24 12:00 43.70919 16.93931 37079 ft 500 kts 291°
2026-04-24 12:00 43.73094 16.84800 37075 ft 499 kts 292°
2026-04-24 12:01 43.75916 16.76107 37074 ft 497 kts 299°
2026-04-24 12:01 43.78992 16.67551 37073 ft 496 kts 300°
2026-04-24 12:02 43.82103 16.59019 37075 ft 496 kts 300°
2026-04-24 12:02 43.85206 16.50463 37075 ft 496 kts 300°
2026-04-24 12:03 43.88288 16.41906 37073 ft 496 kts 300°
2026-04-24 12:03 43.91363 16.33330 37071 ft 497 kts 300°
2026-04-24 12:04 43.94435 16.24734 37087 ft 497 kts 300°
2026-04-24 12:04 43.97487 16.16170 37076 ft 497 kts 300°
2026-04-24 12:05 44.00545 16.07560 37100 ft 497 kts 300°
2026-04-24 12:05 44.03603 15.98925 37087 ft 498 kts 300°
2026-04-24 12:06 44.06661 15.90264 37087 ft 498 kts 300°
2026-04-24 12:06 44.09708 15.81602 37090 ft 499 kts 300°
2026-04-24 12:07 44.12750 15.72930 37090 ft 498 kts 300°
2026-04-24 12:07 44.15766 15.64306 37094 ft 498 kts 300°
2026-04-24 12:08 44.18798 15.55607 37102 ft 498 kts 300°
2026-04-24 12:08 44.21816 15.46919 37101 ft 498 kts 299°
2026-04-24 12:09 44.24827 15.38224 37100 ft 498 kts 300°
2026-04-24 12:09 44.27832 15.29519 37105 ft 498 kts 300°
2026-04-24 12:10 44.30829 15.20810 37112 ft 498 kts 300°
2026-04-24 12:11 44.35294 15.07777 37104 ft 498 kts 300°
2026-04-24 12:11 44.38275 14.99044 37113 ft 497 kts 300°
2026-04-24 12:12 44.41253 14.90292 37110 ft 497 kts 300°
2026-04-24 12:12 44.44218 14.81548 37112 ft 497 kts 300°
2026-04-24 12:13 44.47175 14.72798 37110 ft 497 kts 299°
2026-04-24 12:13 44.50126 14.64038 37108 ft 497 kts 299°
2026-04-24 12:14 44.53071 14.55270 37103 ft 497 kts 299°
2026-04-24 12:14 44.56013 14.46479 37102 ft 498 kts 299°
2026-04-24 12:15 44.58871 14.37624 37102 ft 498 kts 298°
2026-04-24 12:15 44.61635 14.28791 37102 ft 497 kts 298°
2026-04-24 12:16 44.64420 14.19898 37105 ft 497 kts 298°
2026-04-24 12:16 44.67214 14.11004 37095 ft 497 kts 298°
2026-04-24 12:17 44.70003 14.02115 37109 ft 497 kts 298°
2026-04-24 12:17 44.72782 13.93226 37104 ft 496 kts 298°
2026-04-24 12:18 44.75538 13.84382 37104 ft 496 kts 298°
2026-04-24 12:18 44.78304 13.75471 37094 ft 496 kts 297°
2026-04-24 12:19 44.81063 13.66553 37107 ft 496 kts 297°
2026-04-24 12:19 44.83814 13.57629 37107 ft 497 kts 297°
2026-04-24 12:20 44.86562 13.48684 37112 ft 497 kts 297°
2026-04-24 12:20 44.89284 13.39790 37108 ft 497 kts 297°
2026-04-24 12:21 44.92012 13.30850 37115 ft 496 kts 297°
2026-04-24 12:21 44.94734 13.21895 37114 ft 496 kts 297°
2026-04-24 12:22 44.97380 13.12868 37111 ft 499 kts 292°
2026-04-24 12:22 44.98658 13.03178 37109 ft 507 kts 277°
2026-04-24 12:23 44.98947 12.93214 37105 ft 508 kts 274°
2026-04-24 12:23 44.99060 12.83237 37122 ft 508 kts 274°
2026-04-24 12:24 44.99167 12.73316 37103 ft 508 kts 274°
2026-04-24 12:24 44.99293 12.63340 37107 ft 507 kts 274°
2026-04-24 12:25 44.99422 12.53379 37107 ft 507 kts 274°
2026-04-24 12:25 44.99545 12.43424 37104 ft 507 kts 274°
2026-04-24 12:26 44.99658 12.33456 37104 ft 507 kts 274°
2026-04-24 12:26 44.99761 12.23490 37106 ft 507 kts 273°
2026-04-24 12:27 44.99855 12.13535 37112 ft 506 kts 273°
2026-04-24 12:27 44.99941 12.03597 37111 ft 506 kts 273°
2026-04-24 12:28 45.00018 11.93705 37113 ft 506 kts 273°
2026-04-24 12:28 45.00086 11.83760 37134 ft 506 kts 273°
2026-04-24 12:29 45.00146 11.73828 37135 ft 505 kts 273°
2026-04-24 12:29 45.00197 11.63903 37145 ft 505 kts 273°
2026-04-24 12:30 45.00263 11.53975 37146 ft 505 kts 273°
2026-04-24 12:30 45.00338 11.44043 37159 ft 505 kts 273°
2026-04-24 12:31 45.00403 11.34187 37150 ft 505 kts 272°
2026-04-24 12:31 45.00457 11.24248 37120 ft 505 kts 272°
2026-04-24 12:32 45.00502 11.14323 37114 ft 505 kts 272°
2026-04-24 12:32 45.00538 11.04397 37115 ft 505 kts 272°
2026-04-24 12:33 45.00565 10.94503 37121 ft 505 kts 272°
2026-04-24 12:33 45.00583 10.84576 37122 ft 505 kts 272°
2026-04-24 12:34 45.00594 10.74643 37109 ft 505 kts 272°
2026-04-24 12:34 45.00595 10.64701 37132 ft 505 kts 272°
2026-04-24 12:35 45.00588 10.54779 37130 ft 505 kts 272°
2026-04-24 12:35 45.00572 10.44844 37121 ft 505 kts 272°
2026-04-24 12:36 45.00548 10.34976 37125 ft 505 kts 271°
2026-04-24 12:36 45.00515 10.25054 37111 ft 505 kts 271°
2026-04-24 12:37 45.00481 10.16797 37117 ft 505 kts 271°
2026-04-24 12:37 45.00424 10.05259 37093 ft 505 kts 271°
2026-04-24 12:38 45.00375 9.96925 37079 ft 505 kts 271°
2026-04-24 12:38 45.00361 9.87088 37084 ft 504 kts 272°
2026-04-24 12:39 45.00442 9.67271 37088 ft 504 kts 271°
2026-04-24 12:40 45.00458 9.57368 37078 ft 504 kts 271°
2026-04-24 12:40 45.00460 9.47464 37085 ft 503 kts 271°
2026-04-24 12:41 45.00453 9.37573 37081 ft 503 kts 271°
2026-04-24 12:41 45.00437 9.27678 37098 ft 503 kts 271°
2026-04-24 12:42 45.00414 9.17838 37105 ft 504 kts 270°
2026-04-24 12:42 45.00382 9.07942 37091 ft 503 kts 270°
2026-04-24 12:43 45.00341 8.98049 37094 ft 503 kts 270°
2026-04-24 12:43 45.00292 8.88147 37112 ft 503 kts 270°
2026-04-24 12:44 45.00235 8.78255 37102 ft 503 kts 270°
2026-04-24 12:44 45.00169 8.68382 37100 ft 502 kts 270°
2026-04-24 12:45 45.00216 8.58529 37101 ft 501 kts 276°
2026-04-24 12:45 45.00873 8.48783 37095 ft 501 kts 277°
2026-04-24 12:46 45.01643 8.39007 37091 ft 500 kts 277°
2026-04-24 12:46 45.02421 8.29229 37092 ft 499 kts 276°
2026-04-24 12:47 45.03179 8.19461 37095 ft 499 kts 276°
2026-04-24 12:47 45.03921 8.09706 37099 ft 499 kts 276°
2026-04-24 12:48 45.04650 7.99987 37101 ft 499 kts 276°
2026-04-24 12:48 45.05373 7.90246 37104 ft 498 kts 276°
2026-04-24 12:49 45.06088 7.80494 37106 ft 498 kts 276°
2026-04-24 12:49 45.06794 7.70740 37103 ft 498 kts 276°
2026-04-24 12:50 45.07494 7.60977 37103 ft 498 kts 275°
2026-04-24 12:50 45.08183 7.51234 37101 ft 498 kts 275°
2026-04-24 12:51 45.08864 7.41482 37155 ft 497 kts 275°
2026-04-24 12:51 45.09537 7.31734 37157 ft 497 kts 275°
2026-04-24 12:52 45.10794 7.22123 37157 ft 498 kts 288°
2026-04-24 12:52 45.13984 7.13477 37155 ft 497 kts 308°
2026-04-24 12:53 45.18937 7.06703 37152 ft 495 kts 322°
2026-04-24 12:53 45.24405 7.00744 37152 ft 496 kts 324°
2026-04-24 12:54 45.29895 6.94913 37155 ft 496 kts 323°
2026-04-24 12:54 45.35415 6.88984 37160 ft 497 kts 323°
2026-04-24 12:55 45.40919 6.83007 37171 ft 498 kts 323°
2026-04-24 12:55 45.46428 6.76993 37176 ft 497 kts 323°
2026-04-24 12:56 45.51913 6.70990 37179 ft 497 kts 322°
2026-04-24 12:56 45.57367 6.65009 37174 ft 497 kts 322°
2026-04-24 12:57 45.62859 6.58971 37177 ft 498 kts 322°
2026-04-24 12:57 45.68361 6.52906 37177 ft 499 kts 322°
2026-04-24 12:58 45.73847 6.46843 37170 ft 499 kts 322°
2026-04-24 12:58 45.79343 6.40757 37162 ft 499 kts 322°
2026-04-24 12:59 45.84844 6.34689 37161 ft 498 kts 322°
2026-04-24 12:59 45.90333 6.28694 37159 ft 499 kts 322°
2026-04-24 13:00 45.95876 6.22629 37154 ft 500 kts 322°
2026-04-24 13:00 46.01405 6.16554 37159 ft 501 kts 321°
2026-04-24 13:01 46.06934 6.10455 37161 ft 502 kts 321°
2026-04-24 13:01 46.12477 6.04326 37157 ft 501 kts 321°
2026-04-24 13:02 46.18188 5.98641 37158 ft 502 kts 329°
2026-04-24 13:02 46.24266 5.93640 37158 ft 504 kts 330°
2026-04-24 13:03 46.30407 5.88735 37159 ft 505 kts 330°
2026-04-24 13:03 46.36557 5.83823 37162 ft 505 kts 330°
2026-04-24 13:04 46.42706 5.78894 37163 ft 505 kts 330°
2026-04-24 13:04 46.48851 5.73966 37164 ft 505 kts 330°
2026-04-24 13:05 46.55020 5.69004 37165 ft 505 kts 330°
2026-04-24 13:05 46.61165 5.64022 37162 ft 506 kts 329°
2026-04-24 13:06 46.67288 5.59024 37163 ft 508 kts 329°
2026-04-24 13:06 46.73468 5.54024 37163 ft 508 kts 330°
2026-04-24 13:07 46.79634 5.48978 37162 ft 508 kts 329°
2026-04-24 13:07 46.85749 5.43808 37159 ft 508 kts 328°
2026-04-24 13:08 46.91883 5.38679 37158 ft 508 kts 330°
2026-04-24 13:08 46.98057 5.33646 37157 ft 508 kts 329°
2026-04-24 13:09 47.07332 5.26046 37163 ft 510 kts 329°
2026-04-24 13:09 47.13487 5.20981 37142 ft 510 kts 329°
2026-04-24 13:10 47.19645 5.15901 36624 ft 503 kts 329°
2026-04-24 13:10 47.22710 5.13366 35766 ft 506 kts 329°
2026-04-24 13:10 47.25747 5.10728 34880 ft 509 kts 324°
2026-04-24 13:11 47.28510 5.07473 33960 ft 509 kts 314°
2026-04-24 13:11 47.31012 5.03765 33054 ft 510 kts 311°
2026-04-24 13:11 47.33477 4.99966 32096 ft 512 kts 311°
2026-04-24 13:11 47.35906 4.96208 31204 ft 515 kts 311°
2026-04-24 13:12 47.38387 4.92369 30274 ft 518 kts 311°
2026-04-24 13:12 47.40875 4.88521 29469 ft 515 kts 311°
2026-04-24 13:12 47.43340 4.84707 28786 ft 510 kts 311°
2026-04-24 13:12 47.45779 4.80929 28152 ft 505 kts 311°
2026-04-24 13:13 47.48189 4.77190 27499 ft 501 kts 311°
2026-04-24 13:13 47.50586 4.73471 26925 ft 495 kts 312°
2026-04-24 13:13 47.52951 4.69801 26675 ft 491 kts 311°
2026-04-24 13:13 47.55303 4.66132 26372 ft 490 kts 311°
2026-04-24 13:14 47.57639 4.62485 26057 ft 488 kts 311°
2026-04-24 13:14 47.59943 4.58883 25769 ft 486 kts 311°
2026-04-24 13:14 47.62301 4.55192 25425 ft 487 kts 311°
2026-04-24 13:14 47.64604 4.51586 25115 ft 487 kts 311°
2026-04-24 13:15 47.66926 4.47944 24798 ft 485 kts 311°
2026-04-24 13:15 47.69239 4.44313 24479 ft 483 kts 311°
2026-04-24 13:15 47.71542 4.40691 24166 ft 481 kts 311°
2026-04-24 13:15 47.73832 4.37084 23840 ft 478 kts 311°
2026-04-24 13:16 47.76105 4.33500 23517 ft 474 kts 311°
2026-04-24 13:16 47.78354 4.29948 23200 ft 471 kts 311°
2026-04-24 13:16 47.80594 4.26407 22875 ft 469 kts 311°
2026-04-24 13:16 47.82825 4.22875 22579 ft 466 kts 311°
2026-04-24 13:17 47.85037 4.19366 22284 ft 464 kts 312°
2026-04-24 13:17 47.87157 4.15750 21981 ft 461 kts 304°
2026-04-24 13:17 47.88652 4.11583 21690 ft 454 kts 287°
2026-04-24 13:17 47.89458 4.07078 21397 ft 449 kts 279°
2026-04-24 13:18 47.90099 4.02539 21099 ft 446 kts 279°
2026-04-24 13:18 47.90731 3.98022 20836 ft 444 kts 279°
2026-04-24 13:18 47.91366 3.93532 20582 ft 442 kts 279°
2026-04-24 13:18 47.92006 3.89046 20334 ft 440 kts 280°
2026-04-24 13:19 47.92643 3.84598 20072 ft 435 kts 280°
2026-04-24 13:19 47.93272 3.80219 19764 ft 423 kts 280°
2026-04-24 13:19 47.93868 3.76079 19531 ft 394 kts 280°
2026-04-24 13:19 47.94422 3.72225 19399 ft 371 kts 280°
2026-04-24 13:20 47.94951 3.68515 19278 ft 359 kts 280°
2026-04-24 13:20 47.95468 3.64865 19158 ft 361 kts 280°
2026-04-24 13:20 47.95811 3.62437 18872 ft 362 kts 280°
2026-04-24 13:20 47.96405 3.58785 18386 ft 363 kts 287°
2026-04-24 13:21 47.98090 3.54492 17788 ft 368 kts 311°
2026-04-24 13:21 47.99875 3.51686 17362 ft 375 kts 314°
2026-04-24 13:21 48.01714 3.48922 17046 ft 372 kts 314°
2026-04-24 13:21 48.02933 3.47084 16889 ft 365 kts 314°
2026-04-24 13:22 48.04689 3.44425 16620 ft 351 kts 314°
2026-04-24 13:22 48.05809 3.42723 16249 ft 343 kts 314°
2026-04-24 13:22 48.07217 3.40578 15747 ft 334 kts 314°
2026-04-24 13:22 48.08802 3.38155 15106 ft 326 kts 315°
2026-04-24 13:23 48.10390 3.35722 14420 ft 329 kts 315°
2026-04-24 13:23 48.11977 3.33290 14165 ft 322 kts 315°
2026-04-24 13:23 48.13530 3.30908 13979 ft 319 kts 315°
2026-04-24 13:23 48.15068 3.28548 13715 ft 316 kts 315°
2026-04-24 13:24 48.16586 3.26212 13263 ft 308 kts 315°
2026-04-24 13:24 48.18094 3.23888 12997 ft 315 kts 315°
2026-04-24 13:24 48.19617 3.21541 12637 ft 311 kts 315°
2026-04-24 13:24 48.21121 3.19224 12258 ft 308 kts 315°
2026-04-24 13:25 48.22594 3.16961 11857 ft 306 kts 315°
2026-04-24 13:25 48.24077 3.14679 11476 ft 303 kts 315°
2026-04-24 13:25 48.25552 3.12407 10980 ft 304 kts 315°
2026-04-24 13:25 48.27030 3.10128 10676 ft 305 kts 315°
2026-04-24 13:26 48.28506 3.07849 10390 ft 302 kts 315°
2026-04-24 13:26 48.29964 3.05596 10128 ft 300 kts 316°
2026-04-24 13:26 48.31424 3.03349 9754 ft 301 kts 315°
2026-04-24 13:26 48.32883 3.01088 9251 ft 301 kts 315°
2026-04-24 13:27 48.34335 2.98833 8872 ft 298 kts 315°
2026-04-24 13:27 48.35769 2.96605 8494 ft 295 kts 314°
2026-04-24 13:27 48.37185 2.94405 8104 ft 290 kts 315°
2026-04-24 13:27 48.38566 2.92259 7651 ft 279 kts 315°
2026-04-24 13:28 48.39865 2.90237 7367 ft 263 kts 314°
2026-04-24 13:28 48.41113 2.88290 6958 ft 256 kts 315°
2026-04-24 13:28 48.42352 2.86360 6438 ft 255 kts 315°
2026-04-24 13:28 48.43568 2.84465 6217 ft 254 kts 315°
2026-04-24 13:29 48.44749 2.82477 6192 ft 256 kts 307°
2026-04-24 13:29 48.45529 2.80060 6185 ft 259 kts 284°
2026-04-24 13:29 48.45761 2.77392 5958 ft 256 kts 272°
2026-04-24 13:29 48.45827 2.74732 5732 ft 252 kts 271°
2026-04-24 13:30 48.45880 2.72098 5480 ft 252 kts 271°
2026-04-24 13:30 48.45942 2.69464 5345 ft 251 kts 272°
2026-04-24 13:30 48.46010 2.66831 5225 ft 253 kts 272°
2026-04-24 13:30 48.46082 2.64169 5099 ft 253 kts 272°
2026-04-24 13:31 48.46172 2.61563 4980 ft 252 kts 274°
2026-04-24 13:31 48.46289 2.58922 4833 ft 252 kts 274°
2026-04-24 13:31 48.46408 2.56282 4460 ft 254 kts 275°
2026-04-24 13:31 48.46524 2.53631 4129 ft 253 kts 275°
2026-04-24 13:32 48.46639 2.51006 3991 ft 248 kts 274°
2026-04-24 13:32 48.46751 2.48418 3976 ft 248 kts 275°
2026-04-24 13:32 48.46863 2.45825 3970 ft 248 kts 275°
2026-04-24 13:32 48.46973 2.43246 3968 ft 245 kts 274°
2026-04-24 13:33 48.47080 2.40679 3975 ft 245 kts 275°
2026-04-24 13:33 48.47187 2.38112 3974 ft 246 kts 275°
2026-04-24 13:33 48.47299 2.35535 3975 ft 247 kts 275°
2026-04-24 13:33 48.47408 2.32936 3975 ft 249 kts 275°
2026-04-24 13:34 48.47515 2.30342 3965 ft 247 kts 274°
2026-04-24 13:34 48.47617 2.27780 3969 ft 240 kts 275°
2026-04-24 13:34 48.47712 2.25366 3948 ft 228 kts 275°
2026-04-24 13:34 48.47807 2.22975 3966 ft 229 kts 275°
2026-04-24 13:35 48.47905 2.20581 3969 ft 229 kts 275°
2026-04-24 13:35 48.48003 2.18190 3966 ft 227 kts 275°
2026-04-24 13:35 48.48327 2.15860 3715 ft 230 kts 296°
2026-04-24 13:35 48.49226 2.13934 3496 ft 220 kts 317°
2026-04-24 13:36 48.50307 2.12351 3325 ft 214 kts 321°
2026-04-24 13:36 48.51407 2.10845 3059 ft 212 kts 323°
2026-04-24 13:36 48.52503 2.09358 3013 ft 211 kts 322°
2026-04-24 13:36 48.53593 2.07881 2959 ft 207 kts 323°
2026-04-24 13:37 48.54612 2.06499 2975 ft 187 kts 322°
2026-04-24 13:37 48.55553 2.05225 2977 ft 177 kts 324°
2026-04-24 13:37 48.56461 2.03997 3002 ft 176 kts 323°
2026-04-24 13:37 48.57367 2.02779 2979 ft 174 kts 323°
2026-04-24 13:38 48.58272 2.01587 2993 ft 174 kts 324°
2026-04-24 13:38 48.59312 2.00724 2984 ft 168 kts 351°
2026-04-24 13:38 48.60413 2.00878 2973 ft 158 kts 36°
2026-04-24 13:38 48.61209 2.01961 2997 ft 153 kts 52°
2026-04-24 13:39 48.61826 2.03275 3005 ft 151 kts 57°
2026-04-24 13:39 48.62349 2.04574 3000 ft 142 kts 59°
2026-04-24 13:39 48.62828 2.05844 2991 ft 137 kts 60°
2026-04-24 13:39 48.63285 2.07126 2971 ft 138 kts 62°
2026-04-24 13:40 48.63734 2.08405 2978 ft 139 kts 60°
2026-04-24 13:40 48.64192 2.09686 2985 ft 138 kts 60°
2026-04-24 13:40 48.64655 2.10968 3000 ft 140 kts 61°
2026-04-24 13:40 48.65120 2.12261 2997 ft 140 kts 61°
2026-04-24 13:41 48.65582 2.13548 3002 ft 138 kts 61°
2026-04-24 13:41 48.66035 2.14824 2863 ft 138 kts 61°
2026-04-24 13:41 48.66481 2.16086 2695 ft 135 kts 62°
2026-04-24 13:41 48.66924 2.17340 2514 ft 135 kts 60°
2026-04-24 13:42 48.67358 2.18566 2309 ft 127 kts 61°
2026-04-24 13:42 48.67767 2.19714 2159 ft 123 kts 62°
2026-04-24 13:42 48.68168 2.20849 1994 ft 124 kts 62°
2026-04-24 13:42 48.68574 2.22001 1822 ft 124 kts 60°
2026-04-24 13:43 48.68981 2.23155 1656 ft 123 kts 60°
2026-04-24 13:43 48.69386 2.24298 1472 ft 122 kts 61°
2026-04-24 13:43 48.69788 2.25431 1308 ft 121 kts 60°
2026-04-24 13:43 48.70185 2.26553 1152 ft 121 kts 63°
2026-04-24 13:44 48.70582 2.27681 988 ft 122 kts 63°
2026-04-24 13:44 48.70982 2.28813 826 ft 125 kts 62°
2026-04-24 13:44 48.71390 2.29968 659 ft 123 kts 62°
2026-04-24 13:44 48.71790 2.31098 521 ft 122 kts 62°
2026-04-24 13:45 48.72195 2.32229 368 ft 121 kts 64°
2026-04-24 13:45 48.72575 2.33323 307 ft 108 kts 62°
2026-04-24 13:45 48.72849 2.34097 311 ft 56 kts 62°
2026-04-24 13:45 48.72981 2.34490 308 ft 36 kts 72°
2026-04-24 13:46 48.73018 2.34849 308 ft 33 kts 82°
2026-04-24 13:46 48.73041 2.35081 308 ft 18 kts 82°
2026-04-24 13:46 48.72998 2.35257 310 ft 19 kts 137°
2026-04-24 13:46 48.72920 2.35329 309 ft 10 kts 140°
2026-04-24 13:47 48.72873 2.35421 308 ft 12 kts 146°
2026-04-24 13:47 48.72783 2.35462 308 ft 15 kts 165°
2026-04-24 13:47 48.72672 2.35508 309 ft 18 kts 164°
2026-04-24 13:47 48.72566 2.35554 308 ft 11 kts 165°
2026-04-24 13:48 48.72482 2.35589 309 ft 14 kts 165°
2026-04-24 13:48 48.72376 2.35633 309 ft 17 kts 164°
2026-04-24 13:48 48.72338 2.35771 309 ft 16 kts 74°
2026-04-24 13:48 48.72371 2.35947 310 ft 19 kts 74°
2026-04-24 13:49 48.72406 2.36145 310 ft 20 kts 75°
2026-04-24 13:49 48.72446 2.36357 310 ft 22 kts 75°
2026-04-24 13:49 48.72467 2.36474 309 ft 11 kts 75°
2026-04-24 13:49 48.72490 2.36595 310 ft 13 kts 74°
2026-04-24 13:50 48.72517 2.36742 310 ft 16 kts 74°
2026-04-24 13:50 48.72549 2.36916 311 ft 18 kts 74°
2026-04-24 13:50 48.72582 2.37096 309 ft 16 kts 75°
2026-04-24 13:50 48.72645 2.37170 307 ft 13 kts 359°
2026-04-24 13:51 48.72711 2.37244 311 ft 13 kts 72°
2026-04-24 13:51 48.72732 2.37344 310 ft 0 kts 63°
2026-04-24 13:51 48.72735 2.37351 309 ft 2 kts 50°
2026-04-24 13:51 48.72751 2.37356 311 ft 3 kts
2026-04-24 13:52 48.72778 2.37347 311 ft 6 kts 343°
2026-04-24 13:52 48.72803 2.37335 312 ft 0 kts 342°
2026-04-24 13:52 48.72807 2.37332 312 ft 4 kts 342°
2026-04-24 13:52 48.72809 2.37332 312 ft 0 kts 342°
2026-04-24 13:53 48.72809 2.37331 312 ft 0 kts 342°
2026-04-24 13:53 48.72810 2.37331 312 ft 0 kts 342°